Location: Kuppenheim
(48.8299°N, 8.2568°E)
Time: 20:55:02
(UTC+00:00)

Cosmos 990 Rocket - Pass Details

Date: 20 October 2021
Orbit: 746 x 769 km, 74.0° (Epoch: 27 November)

Event Time Altitude Azimuth Distance (km) Brightness Sun altitude
Rises 17:43:44 0° 273° (W) 3,225 9.3 -13.2°
Reaches altitude 10° 17:48:43 10° 315° (NW) 2,310 7.1 -14.0°
Maximum altitude 17:49:31 10° 323° (NW) 2,291 7.0 -14.2°
Drops below altitude 10° 17:50:18 10° 332° (NNW) 2,314 6.9 -14.3°
Sets 17:55:21 0° 14° (NNE) 3,250 7.1 -15.1°
